STARLINK-36576, 67534

Orbit data source: Space-Track

STARLINK-36576, 67534 is a payload satellite owned by SpaceX/Seattle (US) in SSO that was launched on Thu, 22 Jan 2026 UTC via an FALCON 9 launch vehicle from the Air Force Western Test Range (AFWTR). Payload-class satellites include a variety of spacecraft equipped with specific instruments for various scientific and technological missions. These include communications satellites like Starlink; space stations such as the ISS; scientific satellites like the Hubble; Earth observation satellites from companies like Planet Labs, Umbra, and HawkEye 360; GPS; miniature CubeSats for education and research; and military/defense satellites.

Loading next visibility...
Identifier
67534, 2026-014C
Orbit
SSO
Country
Flag of USUS
Related business
Manufacturer
SpaceX/Seattle
Mission
Operational Commercial Communications
Bus & Motor
STARLINK V2MO, Unknown motor
Mass
575 kg wet, ~530 kg dry
Launch date (UTC)
2026-01-22 (5 months ago)
Launch vehicle
FALCON 9
Launch site
Air Force Western Test Range (AFWTR)
Object type
Payload
Rocket body
Debris
Shape & HBR
Box + 2 Pan, 17.7 m
Radar Cross Section
36.964 m², Large (>1 m²)

Expand to show TLE details & history
Last TLE update: 15 hours ago

TLE from 15 hours ago
0 STARLINK-36576
1 67534U 26014C   26171.34123147  .00025073  00000-0  77621-3 0  9993
2 67534  97.2838  57.9941 0002295 105.9931 254.1564 15.33450752 24519
Epoch: 2026-06-20T08:11Z
TLE epoch observation values (Epoch: 2026-06-20T08:11:22.399Z)
Latitude
-0.00006°
Longitude
26.59353°
Altitude
469.067 km
Speed
7.631 km/s
True Right ascension
03h 51m 58s
True Declination
0° 00' 00"
Sunlit
Object was in daylight at epoch
Visualization orbit readout
Latitude
Unknown
Longitude
Unknown
Altitude
Unknown
Speed
Unknown
Apparent Right ascension
Unknown
Apparent Declination
Unknown
Sunlit
N/A
Visualization observer readout
Local Sidereal Time
10:18:48
Azimuth
Unknown
Elevation
Unknown
Doppler factor
Unknown
Orbital elements
Apogee altitude
464.039 km
Perigee altitude
460.899 km
Semi-major axis
6,840.606 km
Eccentricity
0.00023
Inclination
97.2838°
RAAN
57.9941°
Arg. of periapsis
105.9931°
True anomaly
254.1311°
Mean anomaly
254.1564°
Eccentric anomaly
254.14375°
Mean motion
3.8362 °/min
Orbital period
93.84 mins
BSTAR
0.00077621
Loading maneuver chart data...
Computing Atmospheric mass density...
Loading historical data...
Loading historical data...
Loading historical data...
Loading historical data...
Loading historical data...
Loading historical data...
Loading historical data...

Documentation

Showing up to 5 results
|